This demonstration page uses our WeatherBlox Daily Observations layout. Learn more.

Left ArrowRight Arrow

36.17497, -115.13722

Hourly Observations for January 4, 2017

Temp ( °F °C ) Dew Point ( °F °C ) Humidity (%) Winds ( mph kmh ) Pressure ( in mb ) Visibility ( mi km ) Precip ( " mm )
12:53 am 00:53 Clear 43 6.1 39 3.9 86 86 NNW 3 6 30.11 1020 10 16 N/A
1:53 am 01:53 Clear 45 7.2 40 4.4 83 83 ENE 6 9 30.10 1019 10 16 N/A
2:53 am 02:53 Clear 43 6.1 39 3.9 86 86 N 5 7 30.09 1019 10 16 N/A
3:53 am 03:53 Clear 43 6.1 39 3.9 86 86 N N/A 30.08 1019 10 16 N/A
4:53 am 04:53 Clear 42 5.6 39 3.9 89 89 NE 6 9 30.07 1018 10 16 N/A
5:53 am 05:53 Clear 41 5 38 3.3 89 89 N 3 6 30.07 1018 10 16 N/A
6:53 am 06:53 Partly Cloudy 40 4.4 37 2.8 89 89 NW 6 9 30.09 1019 10 16 N/A
7:53 am 07:53 Mostly Sunny 42 5.6 38 3.3 85 85 NNE 3 6 30.08 1019 10 16 N/A
8:53 am 08:53 Sunny 47 8.3 39 3.9 74 74 NE 8 13 30.09 1019 10 16 N/A
9:53 am 09:53 Sunny 49 9.4 41 5 74 74 E 9 15 30.08 1019 10 16 N/A
10:53 am 10:53 Sunny 51 10.6 40 4.4 66 66 E 8 13 30.04 1017 10 16 N/A
11:53 am 11:53 Partly Cloudy 51 10.6 40 4.4 66 66 VRB 5 7 30.01 1016 10 16 N/A
12:53 pm 12:53 Sunny 54 12.2 41 5 62 62 E 8 13 29.99 1016 10 16 N/A
1:53 pm 13:53 Sunny 56 13.3 41 5 57 57 ESE 5 7 29.94 1014 10 16 N/A
2:53 pm 14:53 Sunny 57 13.9 40 4.4 53 53 ESE 10 17 29.94 1014 10 16 N/A
3:53 pm 15:53 Partly Cloudy 55 12.8 41 5 59 59 ENE 13 20 29.94 1014 10 16 N/A
4:53 pm 16:53 Mostly Clear 53 11.7 41 5 64 64 E 13 20 29.96 1014 10 16 N/A
5:53 pm 17:53 Mostly Clear 51 10.6 40 4.4 66 66 E 10 17 29.95 1014 10 16 N/A
6:53 pm 18:53 Cloudy 52 11.1 40 4.4 64 64 ENE 9 15 29.97 1015 10 16 N/A
7:53 pm 19:53 Clear 50 10 41 5 71 71 E 8 13 29.93 1014 10 16 N/A
8:53 pm 20:53 Clear 49 9.4 41 5 74 74 ENE 3 6 29.92 1013 10 16 N/A
9:53 pm 21:53 Clear 47 8.3 41 5 80 80 VRB 3 6 29.91 1013 10 16 N/A
10:53 pm 22:53 Clear 47 8.3 41 5 80 80 E 3 6 29.88 1012 10 16 N/A
11:53 pm 23:53 Mostly Clear 46 7.8 41 5 83 83 NNW 6 9 29.88 1012 10 16 N/A

Powered by AerisWeather